Location: Newark
(21.0333°N, 105.8500°E)
Time: 06:31:06
(UTC+00:00)

Envisat - Pass Details

Date: 14 December 2019
Orbit: 764 x 766 km, 98.1° (Epoch: 20 January)

Event Time Altitude Azimuth Distance (km) Brightness Sun altitude
Rises 11:39:19 0° 185° (S) 3,215 6.5 -18.7°
Reaches altitude 10° 11:41:46 10° 194° (SSW) 2,291 5.9 -19.2°
Maximum altitude 11:46:24 37° 260° (W) 1,176 4.5 -20.3°
Drops below altitude 10° 11:51:03 10° 327° (NNW) 2,298 5.6 -21.3°
Sets 11:53:32 0° 336° (NNW) 3,226 6.3 -21.8°
